Flag Weather past 2 weeks in Charlotte Amalie, US Virgin Islands

Now
79 °F

Passing clouds.


Feels Like: 83 °F
Forecast: 79 / 83 °F
Wind: 7 mph from East

Location: Roosevelt Roads - Naval Station

Current Time: Nov 22, 2014 at 6:49:43 AM

Latest Report: Nov 22, 2014 at 5:53 AM


Visibility: 10 mi

Pressure: 30.00 "Hg

Humidity: 84%

Dew point: 74 °F

Location of Charlotte AmalieLocation

Historic Weather in Charlotte Amalie — Graph

°F

Charlotte Amalie temperature yesterday

Maximum temperature yesterday: 86 °F (at 11:53 AM)
Minimum temperature yesterday: 77 °F (at 5:53 PM)
Average temperature yesterday: 81 °F

Past Weeks' High & Low Weather Summary

 TemperatureHumidityPressure
High88 °F (Nov 9, 12:53 PM)96% (Nov 7, 7:53 AM)30.11 "Hg (Nov 7, 7:53 AM)
Low70 °F (Nov 7, 4:53 PM)61% (Nov 12, 1:53 PM)29.87 "Hg (Nov 8, 2:53 AM)
Average81 °F79%29.98 "Hg
* Reported Nov 7 4:53 AM — Nov 22 4:53 AM, Charlotte Amalie, Weather by CustomWeather, © 2014

Note: Actual official high and low records may vary slightly from our data, if they occured in-between our weather recording intervals... More about our weather records

Advertising

Charlotte Amalie weather history for previous 24 hours

 ConditionsComfort  
Time TempWeatherWind HumidityBarometerVisibility
4:53 AM
Nov 22
78 °FPassing clouds.10 mph87%29.98 "Hg10 mi
3:53 AMN/APassing clouds.6 mphN/A29.99 "Hg10 mi
2:53 AM79 °FPassing clouds.6 mph84%29.99 "Hg10 mi
1:53 AM79 °FPassing clouds.5 mph82%30.01 "Hg10 mi
12:53 AMN/APassing clouds.No windN/A30.03 "Hg10 mi
11:53 PM
Nov 21
N/APassing clouds.No windN/A30.04 "Hg10 mi
10:53 PM77 °FPassing clouds.No wind90%30.06 "Hg10 mi
9:53 PM80 °FOvercast.8 mph79%30.06 "Hg10 mi
8:53 PM80 °FMostly cloudy.3 mph85%30.04 "Hg10 mi
7:53 PM80 °FOvercast.10 mph76%30.03 "Hg10 mi
6:53 PM77 °FMostly cloudy.7 mph85%30.02 "Hg10 mi
5:53 PM77 °FCloudy.3 mph88%30.01 "Hg10 mi
4:53 PM81 °FSunny.3 mph74%29.99 "Hg10 mi
3:53 PM81 °FMostly cloudy.10 mph79%29.98 "Hg10 mi
2:53 PM84 °FScattered clouds.7 mph77%29.98 "Hg10 mi
1:53 PM82 °FBroken clouds.7 mph82%29.99 "Hg10 mi
12:53 PM86 °FPartly sunny.12 mph67%30.02 "Hg10 mi
11:53 AM86 °FScattered clouds.10 mph67%30.04 "Hg10 mi
10:53 AM85 °FSunny.9 mph68%30.06 "Hg10 mi
9:53 AM84 °FPassing clouds.10 mph70%30.07 "Hg10 mi
8:53 AM83 °FPassing clouds.9 mph74%30.06 "Hg10 mi
7:53 AM81 °FPassing clouds.9 mph77%30.04 "Hg10 mi
6:53 AM81 °FPassing clouds.9 mph74%30.02 "Hg10 mi
Weather by CustomWeather, © 2014

See weather overviewHow to use our weather pages